Weather in Pidhorodne

Ukraine / Dnipropetrovsk Region     48°34′29″N   35°06′08″E
temp.,
°C
wind,
m/s
gust,
m/s
humid.,
%
clouds,
%
prec.,
mm/h
press.,
hPa
HPBL,
m
13 may, thu
thu1300:00+7sse37895 0.5 1012154
03:00+7sse24905 0.5 101290
06:00+7s2390100 0.0 101289
09:00+12s356933 0.0 1013644
12:00+17s34455 0.0 10131377
15:00+19s3434100 0.0 10121501
18:00+19s2442100 0.0 1012737
21:00+15ene115387 0.0 101211
14 may, fri
fri1400:00+14e3471100 0.0 101172
03:00+12e358048 0.0 101195
06:00+12ese37911 0.0 1010156
09:00+19sse4675100 0.1 1009470
12:00+23s5748100 0.0 10091161
15:00+24ssw5738100 0.0 10091320
18:00+23sw4750100 0.0 1009753
21:00+18ssw496490 0.0 1010324
15 may, sat
sat1500:00+15wsw3777100 0.0 1011212
03:00+13sw34815 0.0 1011102
06:00+13ssw25801 0.0 1012141
09:00+19ssw46590 0.0 1013501
12:00+23sw57425 0.0 10131975
15:00+25ssw5737100 0.0 10122515
18:00+23s564692 0.0 1012976
21:00+19ssw2255100 0.0 101228
16 may, sun
sun1600:00+17w116037 0.0 101311
03:00+16ene1167100 0.0 101311
06:00+15ene237163 0.0 101371
09:00+21ene365494 0.0 1012418
12:00+25ene5645100 0.0 10111585
15:00+26ene5644100 0.0 10091898
18:00+25ne5753100 0.0 10081019
21:00+20ne51280100 0.8 1007316
17 may, mon
mon1700:00+18ene3885100 0.0 1006180
03:00+16ene388045 0.0 1004180
06:00+16ese368099 0.0 1004173
09:00+21ese585997 0.1 1004473
12:00+23sse4655100 0.0 1004796
15:00+27sse354791 0.0 10031553
18:00+25s466463 1.9 1003798
21:00+20sw378391 3.6 1005188